Location: ???????
(55.5931°N, 39.3286°E)
Time: 16:21:52
(UTC+00:00)

NOSS 7 (E) - Pass Details

Date: 14 April 2024
Orbit: 389 x 1684 km, 63.3° (Epoch: 23 May)

Event Time Altitude Azimuth Distance (km) Brightness Sun altitude
Rises 00:28:31 0° 306° (NW) 2,301 7.9 -14.4°
Reaches altitude 10° 00:30:32 10° 300° (WNW) 1,436 6.8 -14.1°
Maximum altitude 00:33:29 48° 225° (SW) 549 4.4 -13.8°
Drops below altitude 10° 00:36:46 10° 150° (SSE) 1,594 7.1 -13.5°
Sets 00:39:06 0° 145° (SE) 2,596 8.2 -13.2°
